Volver al catálogo

GLOBALSTAR M100

ActivoComunicacionesLEO
NORAD 100332·PAYLOAD·🇺🇸 United States

Lanzado Aug 16, 2026 desde Cape Canaveral Space Force Station

Loading…

Próximos Pases (próximas 24 horas)

TLE

ActualizadoSource: Space-Track

Época: Sep 14, 2026, 14:29 UTC

1 A0332U 26185H   26257.60380462  .00000223  00000-0  78983-4 0  9997
2 A0332  51.9953 110.8820 0008603 327.7685  32.2745 14.64001229  4328

Sigue GLOBALSTAR M100 en tiempo real con AllMySat

Download on the App Store